CW0639 Weather Reports


time (UTC)temp
F
wind
direction
speed
knots
gust
knots
rain 1hr
in
rain 24hr
in
rain mn
in
humidity
%
barometer
mb
20260906140312 82 286 2.6 7.0 0.00 0.01 0.00 88 1010.8
20260906134818 81 311 0.9 3.5 0.00 0.01 0.00 90 1011.1
20260906133318 80 355 2.6 7.0 0.00 0.01 0.00 90 1011.1
20260906131826 80 219 0.9 4.3 0.00 0.01 0.00 91 1011.3
20260906130333 79 212 1.7 4.3 0.00 0.01 0.00 92 1011.4
20260906124813 79 250 3.5 7.0 0.00 0.01 0.00 92 1011.2
20260906123339 78 298 1.7 6.1 0.00 0.01 0.00 92 1011.2
20260906121824 78 242 0.9 3.5 0.00 0.01 0.00 92 1011.1
20260906120331 78 274 0.9 2.6 0.00 0.01 0.00 92 1011.2
20260906114832 78 228 0.0 1.7 0.00 0.01 0.00 92 1011.1
20260906113319 78 255 0.9 1.7 0.00 0.01 0.00 92 1011.0
20260906111826 78 255 0.9 3.5 0.00 0.01 0.00 92 1010.6
20260906110324 78 292 0.9 3.5 0.00 0.01 0.00 92 1010.4
20260906104832 78 279 1.7 2.6 0.00 0.01 0.00 92 1010.4
20260906103343 78 224 0.9 3.5 0.00 0.01 0.00 92 1010.2
20260906101822 78 239 0.9 6.1 0.00 0.01 0.00 92 1010.0
20260906100329 78 226 1.7 6.1 0.00 0.01 0.00 92 1010.0
20260906094814 78 217 0.9 3.5 0.00 0.01 0.00 92 1010.1
20260906093316 78 223 0.9 3.5 0.00 0.01 0.00 92 1010.0
20260906091826 79 269 0.9 2.6 0.00 0.01 0.00 92 1009.8
20260906090313 79 250 0.9 2.6 0.00 0.01 0.00 91 1009.9
20260906084812 79 227 0.9 2.6 0.00 0.01 0.00 91 1009.8
20260906083322 79 252 0.9 1.7 0.00 0.01 0.00 91 1009.9
20260906081830 79 172 0.9 1.7 0.00 0.01 0.00 91 1009.8
20260906080336 79 249 0.9 0.9 0.00 0.01 0.00 91 1009.7
20260906074820 79 249 0.0 0.9 0.00 0.01 0.00 91 1009.8
20260906073328 79 249 0.0 2.6 0.00 0.01 0.00 91 1009.7
20260906071827 79 249 0.0 1.7 0.00 0.01 0.00 91 1009.7
20260906070313 79 249 0.9 1.7 0.00 0.01 0.00 91 1009.8
20260906064820 79 257 0.9 2.6 0.00 0.01 0.00 90 1009.8
20260906063319 80 187 0.0 2.6 0.00 0.01 0.00 90 1009.9
20260906061849 80 248 0.9 2.6 0.00 0.01 0.00 90 1010.0
20260906060457 80 232 0.9 4.3 0.00 0.01 0.00 90 1010.1
20260906054831 80 242 1.7 5.2 0.00 0.01 0.00 90 1010.2
20260906053320 80 265 1.7 4.3 0.00 0.01 0.00 90 1010.3
20260906051821 80 254 1.7 3.5 0.00 0.01 0.00 90 1010.4
20260906050326 80 140 0.9 2.6 0.00 0.01 0.00 90 1010.4
20260906044818 81 202 0.9 2.6 0.00 0.01 0.00 90 1010.5
20260906043317 81 194 0.9 2.6 0.00 0.01 0.00 90 1010.7
20260906041822 81 170 1.7 4.3 0.00 0.01 0.00 90 1010.6
20260906040329 81 221 0.9 3.5 0.00 0.01 0.00 90 1010.7
20260906034831 81 207 1.7 4.3 0.00 0.01 0.01 90 1011.0
20260906033336 81 196 0.9 3.5 0.00 0.01 0.01 90 1011.0
20260906031819 81 167 1.7 2.6 0.00 0.01 0.01 89 1011.2
20260906030328 82 180 0.9 1.7 0.00 0.01 0.01 89 1011.4
20260906024829 82 198 0.0 2.6 0.00 0.01 0.01 89 1011.3
20260906023346 82 121 1.7 3.5 0.00 0.01 0.01 88 1011.3
20260906021832 82 153 0.9 1.7 0.00 0.01 0.01 88 1011.1
20260906020321 82 187 0.9 2.6 0.00 0.01 0.01 88 1011.0
20260906014825 82 142 0.9 4.3 0.00 0.01 0.01 87 1010.7
20260906013314 83 184 1.7 5.2 0.00 0.01 0.01 86 1010.4
20260906011824 83 191 1.7 3.5 0.00 0.01 0.01 85 1010.3
20260906010326 83 198 1.7 3.5 0.00 0.01 0.01 84 1010.4
20260906004815 83 182 2.6 4.3 0.00 0.01 0.01 83 1010.1
20260906003315 84 171 2.6 5.2 0.00 0.01 0.01 83 1010.0
20260906001821 84 139 0.9 2.6 0.00 0.01 0.01 82 1009.6
20260906000329 85 149 0.9 1.7 0.00 0.01 0.01 81 1009.6
20260905234836 85 173 0.0 1.7 0.00 0.01 0.01 80 1009.5
20260905233320 86 173 0.0 1.7 0.00 0.01 0.01 79 1009.6
20260905231835 86 219 0.9 4.3 0.00 0.01 0.01 78 1009.5
20260905230314 86 153 2.6 6.1 0.00 0.01 0.01 78 1009.5
20260905224822 86 149 1.7 5.2 0.00 0.01 0.01 78 1010.0
20260905223352 86 201 1.7 3.5 0.00 0.01 0.01 78 1010.2
20260905221815 86 196 3.5 5.2 0.00 0.01 0.01 80 1010.2
20260905220344 86 229 1.7 3.5 0.00 0.01 0.01 81 1010.3
20260905214815 86 215 0.9 5.2 0.00 0.01 0.01 80 1010.2
20260905213321 85 179 1.7 3.5 0.00 0.01 0.01 81 1010.3
20260905211814 85 142 2.6 4.3 0.00 0.01 0.01 80 1010.3
20260905210325 85 150 0.9 1.7 0.00 0.01 0.01 82 1010.3
20260905204854 85 167 0.9 2.6 0.00 0.01 0.01 82 1010.4
20260905203326 85 167 0.0 1.7 0.00 0.01 0.01 82 1010.4
20260905201818 85 140 0.9 2.6 0.00 0.01 0.01 81 1010.5
20260905200326 85 177 1.7 5.2 0.00 0.01 0.01 80 1010.6
20260905194830 86 156 0.9 2.6 0.00 0.01 0.01 79 1010.7
20260905193340 86 182 1.7 3.5 0.00 0.01 0.01 76 1010.9
20260905191827 87 237 1.7 3.5 0.00 0.01 0.01 75 1010.7
20260905190355 88 143 0.9 2.6 0.00 0.01 0.01 72 1011.2
20260905184817 89 218 3.5 7.8 0.00 0.01 0.01 68 1011.1
20260905183326 91 285 3.5 8.7 0.00 0.01 0.01 69 1011.1
20260905181833 91 333 0.9 9.6 0.00 0.01 0.01 72 1011.1
20260905180332 91 300 2.6 7.8 0.00 0.01 0.01 72 1011.2
20260905174817 90 31 2.6 6.1 0.00 0.01 0.01 72 1011.5
20260905173347 89 16 1.7 7.0 0.01 0.01 0.01 73 1011.6
20260905171836 89 260 1.7 5.2 0.01 0.01 0.01 74 1011.7
20260905170319 89 313 2.6 3.5 0.01 0.01 0.01 76 1012.1
20260905164828 89 265 0.9 5.2 0.01 0.01 0.01 77 1012.5
20260905163337 90 304 2.6 7.8 0.00 0.00 0.00 70 1012.6
20260905161820 91 320 2.6 7.0 0.00 0.00 0.00 73 1012.8
20260905160324 90 231 2.6 6.1 0.00 0.00 0.00 74 1012.9
20260905154850 89 340 4.3 8.7 0.00 0.00 0.00 75 1013.1
20260905153315 88 256 2.6 8.7 0.00 0.00 0.00 78 1013.3
20260905151838 87 341 2.6 6.1 0.00 0.00 0.00 81 1013.4
20260905150316 86 261 2.6 7.0 0.00 0.00 0.00 83 1013.4
20260905144818 84 278 1.7 4.3 0.00 0.00 0.00 87 1013.4
20260905143316 83 241 1.7 3.5 0.00 0.00 0.00 89 1013.4
20260905141827 82 249 1.7 6.1 0.00 0.00 0.00 91 1013.5